www.pogodaiklimat.ru

Погода и климат >> Архив погоды >> Россия >> Краснодарский край >> Псебай


ПОГОДА в Псебае

  • Прогноз погоды в Псебае
  • Монитор погоды в Псебае

АРХИВ ПОГОДЫ в Псебае

Время (UTC), дата Ветер
(напр.,м/с)
 
Видим.   Явления Облачность Т
(С)
Тd
(С)
f
(%)
Тe
(С)
Тes
(С)
Комфортность P
(гПа)
Po
(гПа)
Тmin
(С)
Tmax
(С)
R
(мм)
R24
(мм)
S
(см)
06 15.09 Ю 1 20 км 3/1 1500 м
[Cu hum Ci fib]
+17.3 +9.3 59 +18 +24 1019.7 948.6
09 15.09 СВ 2 20 км 10/1 1500 м
[Cu hum Ci fib]
+22.9 +5.2 32 +23 +32 комфорт 1017.6 947.8
12 15.09 СЗ 4 20 км 10/4 1000 м
[Cb calv Ci fib]
+23.5 +5.6 31 +23 +26 комфорт 1017.3 947.7
15 15.09 ЮВ 1 20 км 10/9 1000 м
[Cb calv Ci]
+20.2 +7.5 44 +22 +22 комфорт 1018.9 948.5 +24.2
18 15.09 штиль 0 10 км 10/8 1000 м
[Cb calv Ci]
+14.9 +11.9 82 +15 +15 1021.4 949.7
21 15.09 штиль 0 10 км ясно +10.0 +8.3 89 +9 +9 1022.0 949.0
00 16.09 Ю 1 10 км ясно +7.2 +5.7 90 +6 +6 1022.4 948.6
03 16.09 Ю 2 20 км ясно +6.9 +5.3 90 +5 +5 1021.3 947.5 +6.4
06 16.09 Ю 1 20 км ясно +16.9 +7.6 54 +18 +24 1017.2 946.1
09 16.09 С 2 20 км ясно +24.1 +8.4 37 +25 +36 комфорт 1013.3 944.1
12 16.09 С 3 20 км ясно +25.8 +5.1 26 +25 +31 комфорт 1011.2 942.5
15 16.09 штиль 0 20 км 3/3 1000 м
[Cb calv]
+21.3 +8.4 44 +22 +23 комфорт 1012.4 942.7 +26.0
18 16.09 ЮВ 2 10 км ясно +12.2 +10.1 87 +11 +11 1015.7 943.7
21 16.09 штиль 0 10 км 10/0
[Ci]
+10.6 +9.1 90 +10 +10 1016.1 943.6
00 17.09 ЮВ 2 10 км 10/4 1000 м
[Cb calv Ci]
+10.9 +9.3 90 +10 +10 1015.2 942.9
03 17.09 штиль 0 20 км 10/8 1000 м
[Cb calv Ci]
+10.3 +9.0 92 +10 +10 1015.4 942.9 +10.1
06 17.09 ЮВ 3 20 км слаб. ливневой дождь 10/10 600 м
[Cb cap]
+13.7 +10.9 83 +13 +13 1014.7 943.1
09 17.09 ЮЗ 2 20 км {ливн. осадки} 10/10 300 м
[Cb cap]
+15.8 +12.4 80 +16 +16 1012.6 941.7
12 17.09 штиль 0 20 км в посл. час ливневой дождь 10/8 600 м
[Cb calv Ci fib]
+17.0 +13.1 78 +17 +18 1012.0 941.5
15 17.09 штиль 0 20 км {ливн. осадки} 6/3 1000 м
[Sc diur, vesp Ci]
+17.0 +13.4 79 +17 +17 1011.8 941.3 +17.9 2
18 17.09 штиль 0 500 м туман {ливн. осадки} ?/? +11.3 +10.2 93 +11 +11 1014.6 942.4
21 17.09 Ю 3 200 м туман н/о +10.9 +9.9 94 +9 +9 1014.8 942.6
00 18.09 штиль 0 4000 м дымка {туман} 10/10 200 м
[Cb calv]
+7.7 +6.6 93 +7 +7 1015.9 942.7
03 18.09 Ю 2 20 км 1/1 1500 м
[Sc]
+4.8 +3.7 93 +2 +2 1016.6 942.5 +4.8 0.3
06 18.09 Ю 2 20 км 1/0
[Ci fib]
+15.1 +8.7 66 +15 +20 1014.4 943.1 +4.6
09 18.09 С 3 20 км 1/0
[Ci sp]
+25.0 +1.3 21 +24 +33 комфорт 1011.0 942.1
12 18.09 С 1 20 км 1/1 1000 м
[Sc]
+27.5 +1.5 19 +26 +33 жарко 1009.3 941.1
15 18.09 ЮЗ 2 20 км ясно +23.7 +6.8 34 +24 +24 комфорт 1009.9 940.9 +27.9
18 18.09 Ю 2 10 км ясно +12.1 +7.9 75 +11 +11 1014.4 942.4
21 18.09 С 5 10 км ясно +12.7 +7.8 72 +11 +11 1016.3 944.3
00 19.09 Ю 2 10 км 10/10 300 м
[Cb calv]
+11.0 +9.0 87 +10 +10 1018.6 946.0
03 19.09 штиль 0 20 км 10/10 300 м
[Cb calv]
+11.5 +9.9 90 +11 +11 1019.1 946.7 +8.0
06 19.09 СВ 4 20 км 10/10 300 м
[Cb calv]
+12.1 +8.8 80 +10 +10 1020.6 948.1
09 19.09 С 2 20 км 10/10 600 м
[Cb calv]
+14.3 +8.6 69 +14 +14 1019.8 948.0
12 19.09 СВ 2 20 км 10/8 1000 м
[Cb calv Ci fib]
+16.6 +9.1 61 +17 +18 1019.0 947.7
15 19.09 С 1 20 км 10/10 600 м
[Cb calv]
+15.6 +9.5 67 +16 +16 1019.7 948.2 +17.5
18 19.09 Ю 2 10 км 3/3 1000 м
[Cb calv]
+8.2 +5.7 84 +6 +6 1021.4 947.8
21 19.09 Ю 1 10 км 10/8 1000 м
[Cb calv Ci]
+7.2 +6.0 92 +6 +6 1021.4 947.6
00 20.09 штиль 0 10 км 10/10 1000 м
[Cb calv]
+9.4 +7.4 87 +9 +9 1020.4 947.3
03 20.09 штиль 0 20 км 10/3 1000 м
[Cb calv Ci fib]
+7.1 +5.9 92 +6 +6 1019.5 945.8 +5.8
06 20.09 С 3 20 км 10/3 1000 м
[Cb calv Ci]
+12.8 +6.8 67 +12 +14 1017.0 945.0
09 20.09 С 5 20 км 10/3 1000 м
[Sc Ci fib]
+17.4 +7.2 51 +17 +20 1012.8 942.2
12 20.09 С 3 20 км 10/8 1000 м
[Cb calv Ci]
+19.7 +8.4 48 +21 +22 комфорт 1009.9 940.0
15 20.09 С 4 20 км 10/10 1000 м
[Cb calv]
+12.8 +5.7 62 +11 +11 1013.4 941.6 +19.9
18 20.09 С 3 10 км слаб. ливневой дождь 10/10 1000 м
[Cb cap]
+8.4 +6.2 86 +6 +6 1015.7 942.6
21 20.09 С 2 10 км {ливн. осадки} 10/10 600 м
[Cb calv]
+7.4 +6.1 91 +5 +5 1016.6 943.3
00 21.09 СВ 2 10 км слаб. ливневой дождь 10/10 600 м
[Cb cap]
+7.0 +5.9 93 +5 +5 1016.2 942.8
03 21.09 СВ 1 4000 м слаб. ливневой дождь 10/10 300 м
[Cb cap]
+7.1 +5.9 92 +6 +6 1017.1 943.6 +7.0 9
06 21.09 штиль 0 20 км в посл. час ливневой дождь 10/10 300 м
[Cb calv]
+8.1 +5.2 82 +7 +7 1018.2 944.9 +6.8
09 21.09 С 2 20 км 8/4 600 м
[Cb calv Ci ing]
+13.2 +5.1 58 +13 +18 1016.2 944.3
12 21.09 С 2 20 км 10/8 1000 м
[Cb calv Ci]
+13.1 +1.7 46 +13 +14 1016.8 944.7
15 21.09 В 2
{13}
20 км в посл. час ливневой дождь 10/10 600 м
[Cb calv]
+7.3 +3.9 79 +5 +5 1020.7 947.0 +14.3 0.3
18 21.09 штиль 0 10 км {ливн. осадки} 9/9 1000 м
[Cb calv]
+6.1 +4.0 86 +5 +5 1023.1 948.9
21 21.09 ЮВ 4 10 км 10/8 1000 м
[Cb calv Ci ing]
+5.1 +2.5 83 +1 +1 1023.8 949.2
00 22.09 ЮВ 4 10 км 3/0
[Ci fib]
+2.9 +1.7 92 -2 -2 1024.5 949.3

 

Местоположение метеостанции Псебай (Краснодарский край, Россия): широта 44.13 долгота 40.78 высота над уровнем моря 621 м.

В архиве по умолчанию представлена погода в Псебае за последнюю неделю. Архивные данные за месяц целиком и за предыдущие месяцы, начиная с января 2011 года, Вы можете получить, выбрав интересующий диапазон дат из раскрывающегося списка и нажав кнопку "Ввод!".


*Определитесь, кто Вы:
робот инопланетянин человек

Внимание! Время в таблицах - всемирное. Для получения местного времени необходимо прибавить поправку, которая равна 3 ч.

Смотрите также архив погоды в соседних городах и на ближайших метеорологических станциях:

Погода в Гузерипле (Адыгея, Россия) (54 км)
Погода в Лабинске (Краснодарский край, Россия) (60 км)
Погода в Даховской (Адыгея, Россия) (60 км)
Погода на Кордоне Лаура (Краснодарский край, Россия) (61 км)
Погода в Отрадной (Краснодарский край, Россия) (63 км)
Погода в Шунтуке (Адыгея, Россия) (65 км)
Погода в Горная Карусель 1500 (Краснодарский край, Россия) (66 км)
Погода в Горная Карусель 1000 (Краснодарский край, Россия) (66 км)
Погода в Красной Поляне (Краснодарский край, Россия) (68 км)
Погода в Зеленчукской (Карачаево-Черкессия, Россия) (70 км)

Пояснения к столбцам:

Ветер - указаны скорость ветра в м/с - средняя за 10 мин, порывы в срок и между сроками (в фигурных скобках) и направление, откуда дует ветер: С - северный, СВ - северо-восточный, В - восточный, ЮВ - юго-восточный, Ю - южный, ЮЗ - юго-западный, З - западный, СЗ - северо-западный.
Видимость - горизонтальная дальность видимости в метрах или километрах. При видимости от 1 до 10 км при отсутствии осадков обычно наблюдается дымка, при ухудшении видимости до 1 км и менее - туман. В сухую погоду видимость может ухудшаться дымом, пылью или мглою.
Явления - указаны атмосферные явления, наблюдавшиеся в срок или в последний час перед сроком; фигурными скобками обозначены явления, наблюдавшиеся между сроками (за 1-3 часа до срока); квадратными скобками обозначены град или гололедные отложения с указанием их диаметра в мм.
Облачность - указаны через наклонную черту общая и нижняя облачность в баллах и высота нижней границы облаков в метрах; квадратными скобками обозначены формы облаков: Ci - перистые, Cs - перисто-слоистые, Cc - перисто-кучевые, Ac - высококучевые, As - высокослоистые, Sc - слоисто-кучевые, Ns - слоисто-дождевые, Cu - кучевые, Cb - кучево-дождевые. Подробнее классификацию облаков см. в Атласе облаков (PDF).
T - Температура воздуха - температура, измеренная на высоте 2 м над землей.
Td - Температура точки росы - температура, при понижении до которой содержащийся в воздухе водяной пар достигнет насыщения.
f - Относительная влажность воздуха - влажноcть воздуха, измеренная на высоте 2 м над землей.
Te - Эффективная температура - температура, которую ощущает одетый по сезону человек в тени. Характеристика душности погоды. При расчете учитывается влияние влажности воздуха и скорости ветра на теплоощущения человека.
Tes - Эффективная температура на солнце - температура, которую ощущает человек, с поправкой на солнечный нагрев. Характеристика знойности погоды. Зависит от высоты солнца над горизонтом, облачности и скорости ветра. Ночью, в пасмурную погоду, а также при ветре 12 м/с и более поправка равна нулю.
P - Атмосферное давление - приведенное к уровню моря атмосферное давление.
Po - Атмосферное давление - измеренное на уровне метеостанции атмосферное давление.
Tmin - Минимальная температура - минимум температуры воздуха на высоте 2 м над землей.
Tmax - Максимальная температура - максимум температуры воздуха на высоте 2 м над землей.
R - Количество осадков - Количество выпавших осадков за период времени, мм. При наведении курсора мыши на число - период времени, за который выпало указанное количество осадков.
R24 - Количество осадков - Количество выпавших осадков за 24 часа, мм.
S - Снежный покров - Высота снежного покрова, см. При наведении курсора мыши на число - состояние снежного покрова и степень покрытия местности в баллах.